Theta_e
351 351 352 352 353 351 346 344 345 344 345 346 347 348 349 349 349 349 348 347 345 345 345 345 346 346 346 347 347 348 349 350 350 350 349 348 348 349 350 348 347 347 347 345 343 343 342 344 347 348 349 349 349 349 349 350 350 349 349 350 351 352 352 352 352 352 352 351 349 348 350 351 352 353 353 353 354 352 352 351 347 346 347 348 349
351 351 351 352 353 351 345 345 345 345 346 347 349 349 349 349 349 349 349 350 349 349 348 349 349 349 350 350 351 351 352 352 352 351 350 350 349 350 350 348 348 347 346 344 341 340 341 343 346 348 350 350 350 351 351 351 349 349 349 350 350 351 351 351 351 351 351 351 351 351 352 352 352 353 353 353 352 351 352 350 346 346 349 350 350
351 351 351 352 352 349 344 344 345 345 347 349 350 350 350 349 349 349 349 349 350 351 350 351 351 351 352 352 352 352 352 352 351 351 351 351 350 350 349 348 348 348 348 346 343 341 341 341 344 347 350 350 351 351 351 350 349 349 349 350 350 350 350 350 350 350 350 351 351 351 352 352 352 352 352 352 350 350 351 349 348 349 350 350 350
351 351 352 353 352 347 343 344 345 347 348 350 351 351 351 351 351 350 349 349 350 350 351 352 352 352 352 352 352 352 352 352 351 351 351 350 350 349 349 349 350 350 350 349 346 344 343 342 342 346 350 351 351 351 350 350 350 349 349 349 348 347 347 348 349 350 351 351 350 350 351 352 351 351 351 351 351 350 350 350 350 350 350 349 349
351 350 351 354 352 346 341 343 346 348 349 350 351 351 351 351 351 351 350 351 351 352 352 352 351 351 351 352 353 352 351 351 352 352 352 350 350 350 350 351 351 351 351 351 349 349 347 344 342 346 351 350 351 350 350 349 349 349 348 347 345 345 346 347 348 349 350 348 348 349 351 352 351 351 351 351 351 351 351 351 349 349 349 349 348
352 352 352 354 352 345 340 344 346 348 349 350 351 351 351 351 351 351 352 352 352 352 352 352 350 350 351 352 352 352 351 351 352 352 352 351 351 351 352 352 353 352 352 352 351 351 350 346 342 346 351 351 351 350 350 349 349 349 348 347 347 347 347 347 347 347 347 346 347 348 350 351 351 351 351 350 350 351 351 350 349 349 349 348 348
352 352 353 354 352 345 342 343 346 349 349 350 350 350 351 350 351 352 351 352 353 351 351 352 350 350 352 353 352 351 350 351 351 351 351 351 352 352 353 353 353 353 352 352 352 351 351 348 344 347 350 350 351 350 351 351 350 349 349 349 349 349 349 349 347 346 346 346 348 350 351 351 351 351 351 351 350 350 350 349 349 348 348 348 348
351 352 352 353 351 347 344 343 346 348 349 350 350 351 351 351 351 351 351 352 353 352 352 352 351 351 353 353 352 351 351 351 350 350 351 351 352 352 353 353 352 352 352 352 351 350 350 349 346 346 349 351 350 350 351 350 350 349 350 350 350 350 350 348 347 345 345 345 347 350 351 351 350 350 350 351 350 350 349 349 348 347 348 348 348
351 352 352 353 351 349 345 343 346 348 349 350 349 350 351 351 351 350 351 351 352 353 352 353 352 352 353 353 352 352 350 350 350 349 351 351 352 353 353 353 351 351 351 352 352 351 350 349 347 345 348 352 351 351 351 350 350 351 350 351 351 351 350 347 346 344 344 344 346 349 350 350 350 349 349 350 350 349 349 349 348 348 348 348 347
352 352 353 353 351 349 345 344 347 349 349 349 349 351 351 351 350 349 350 351 351 352 352 353 353 352 352 353 352 351 350 350 350 349 351 352 352 353 353 352 352 351 352 352 351 352 350 350 347 341 344 350 352 352 352 351 351 351 350 350 350 351 349 346 345 344 343 343 344 347 349 350 350 349 349 348 349 349 348 348 348 348 348 348 346
352 352 353 353 353 348 343 345 348 349 349 349 350 351 351 350 350 349 350 351 351 351 352 352 353 353 352 352 352 351 351 350 350 350 351 351 352 353 352 352 352 351 351 351 351 351 350 350 348 339 338 345 349 350 351 351 351 350 351 351 351 351 349 346 345 344 344 344 345 346 347 349 350 349 349 348 347 348 347 347 347 347 348 348 345
353 353 353 354 353 347 344 346 348 349 348 349 350 350 350 349 350 349 349 350 351 351 351 351 352 353 353 353 353 352 352 351 351 352 352 352 352 353 353 353 352 351 351 351 350 350 349 349 349 343 336 338 344 349 351 351 352 350 349 350 350 350 348 346 345 345 345 346 346 346 347 348 349 350 349 348 348 347 347 348 348 347 347 348 346
354 354 354 354 351 348 346 347 348 348 348 349 349 350 350 350 350 349 350 351 351 352 352 352 352 352 353 352 353 352 352 352 353 353 353 353 352 353 353 353 353 352 351 351 351 350 349 349 350 347 339 338 345 350 351 351 351 350 350 351 351 350 348 346 345 344 345 346 346 346 347 348 349 349 349 348 348 348 348 348 348 348 348 348 346
353 354 355 353 350 348 346 347 348 348 349 349 349 350 350 350 350 351 351 351 352 352 352 352 352 353 352 352 352 352 352 352 352 352 352 352 352 352 352 353 352 352 352 352 352 351 351 350 351 348 342 343 349 351 351 351 351 351 351 351 351 350 348 347 344 343 344 345 345 346 348 347 348 349 349 348 347 347 347 347 347 349 348 348 347
353 354 354 352 350 349 346 347 348 348 348 349 349 350 350 350 351 352 352 352 352 351 351 351 351 352 351 352 352 352 352 351 351 352 352 353 353 352 352 353 352 352 352 352 352 351 351 350 351 349 344 346 350 351 351 351 351 351 351 350 351 349 347 346 344 342 343 344 345 345 347 348 347 348 349 349 348 348 348 347 346 346 347 348 347
353 354 354 351 350 348 347 347 348 348 348 348 349 349 350 350 351 353 352 351 351 349 348 348 349 352 352 352 353 352 352 352 353 352 352 352 352 352 352 352 352 352 352 352 351 350 350 350 350 349 346 346 349 350 350 349 350 350 350 351 350 348 346 346 343 342 343 343 345 345 346 347 347 348 349 349 349 349 349 347 345 345 347 347 347
354 354 353 352 350 347 347 348 348 348 348 349 349 349 349 350 352 353 352 350 348 347 346 345 348 352 352 352 353 352 352 352 351 351 352 351 351 351 351 352 352 351 351 353 352 350 350 349 351 350 347 345 347 349 349 347 348 350 350 350 350 347 346 346 343 342 343 343 344 345 347 347 348 348 348 348 348 349 349 348 347 346 346 346 346
354 354 354 352 348 346 346 347 348 348 348 349 350 350 349 350 352 352 349 348 347 346 344 344 347 349 349 349 349 348 348 346 346 347 348 349 349 349 349 349 349 349 349 350 351 351 350 350 351 350 348 345 347 349 348 346 347 348 349 350 350 348 346 345 343 342 342 343 344 345 346 347 347 347 347 347 347 347 347 347 347 347 346 346 346
354 354 354 351 347 346 345 347 348 349 349 350 350 350 349 350 351 350 347 346 347 346 343 344 347 348 347 345 345 345 343 342 343 344 345 345 346 347 347 347 347 347 346 346 347 348 349 350 350 349 349 348 347 347 347 347 347 347 349 350 350 349 346 345 343 342 342 343 343 344 346 346 346 346 345 346 346 346 347 347 347 347 348 346 346
354 354 354 352 347 346 345 347 348 348 349 349 349 350 350 350 350 349 346 344 346 345 343 344 347 348 347 347 348 349 346 345 344 344 345 345 346 347 348 348 347 346 345 344 344 344 346 347 348 348 349 347 346 346 347 347 347 347 348 349 348 347 345 345 344 342 341 342 343 344 345 345 344 344 344 345 345 345 346 346 346 346 346 346 346
355 355 355 353 349 346 345 346 348 348 349 348 348 349 350 350 350 349 346 343 345 345 344 345 348 348 349 349 349 349 350 349 347 347 347 347 349 351 350 349 348 349 349 348 345 343 343 344 345 346 347 347 347 347 348 347 347 347 347 347 346 345 344 345 344 342 341 342 343 344 345 345 344 343 344 343 343 344 345 345 345 345 345 346 345
355 356 355 353 350 346 345 346 348 348 348 349 348 348 350 350 349 348 345 344 346 345 343 346 350 350 348 346 343 344 347 346 345 347 347 349 352 353 352 349 348 349 350 350 350 347 344 343 343 344 345 346 347 347 347 346 346 348 349 348 346 344 345 345 344 343 342 342 342 344 345 345 344 343 343 343 343 342 343 344 344 344 345 345 345
355 355 355 354 350 346 345 345 346 348 348 348 347 348 350 348 347 347 345 345 347 345 344 347 349 348 345 343 342 342 342 340 341 343 344 348 352 353 352 350 349 348 348 350 352 352 349 345 343 344 344 344 345 346 347 347 348 350 350 347 345 345 346 344 343 342 342 343 342 344 345 345 344 344 343 342 341 341 341 342 342 343 344 345 345
355 354 355 354 350 347 345 344 345 346 348 348 347 347 349 347 347 346 344 345 348 346 344 344 343 342 344 345 347 345 342 339 339 339 341 347 352 353 351 349 348 348 348 350 351 352 351 348 344 343 343 343 344 345 346 347 348 350 350 348 346 346 346 346 343 340 341 343 342 344 346 345 345 345 343 340 339 340 341 340 341 342 343 344 345
354 354 355 354 351 347 345 344 342 345 347 347 347 347 348 347 346 344 342 344 348 345 343 341 339 343 346 348 350 350 348 346 344 342 339 344 350 351 349 347 346 347 348 348 349 350 349 348 346 343 343 343 344 346 347 347 347 349 350 348 347 347 347 347 345 341 340 343 343 344 346 345 345 345 345 343 341 342 341 341 341 341 341 342 344
353 354 355 354 352 348 345 344 341 344 347 346 346 347 348 346 344 343 340 341 344 342 341 340 340 348 349 349 350 351 352 351 350 348 340 340 345 346 346 346 347 348 348 348 348 347 347 347 346 346 345 344 344 346 347 347 347 348 349 349 348 348 347 347 348 343 339 342 344 344 346 345 345 345 345 345 344 343 342 341 341 341 341 341 343
353 353 354 354 353 349 346 343 341 344 346 347 346 346 347 345 342 341 340 339 340 339 340 339 342 350 350 349 351 350 352 352 352 351 346 342 342 345 348 348 349 349 348 349 348 347 347 348 348 349 348 347 346 345 346 346 346 347 346 348 348 348 349 348 349 345 338 341 344 345 346 345 346 345 345 345 344 343 343 342 341 341 341 341 342
352 353 354 354 353 351 347 343 341 342 345 346 345 344 343 342 342 341 340 339 340 339 339 338 342 349 350 350 350 349 350 350 351 351 350 348 344 346 349 349 349 349 348 349 349 347 348 349 349 349 349 349 348 347 348 347 346 347 346 346 347 348 349 349 349 346 338 339 344 345 345 345 346 346 346 346 345 344 343 343 343 342 340 340 340
352 352 353 353 353 351 349 344 340 341 344 345 343 341 341 341 342 341 340 340 339 339 339 339 342 348 350 351 350 350 348 348 350 351 351 352 350 349 349 348 349 349 348 348 349 349 349 349 349 349 349 349 349 349 348 348 347 347 347 347 347 347 347 347 348 346 338 338 343 345 345 345 346 346 346 346 345 344 344 344 344 344 342 340 340
351 351 352 353 352 351 349 344 340 340 342 342 342 340 340 341 341 340 339 339 339 339 339 340 343 348 350 351 351 351 349 347 349 351 351 351 352 352 350 349 350 350 349 348 349 351 351 350 349 349 350 350 350 350 348 348 347 346 346 345 347 347 346 345 346 346 340 336 340 344 346 345 345 346 346 346 344 344 344 345 345 345 344 343 341
350 351 351 352 352 351 349 345 341 339 340 341 341 340 340 340 340 340 339 338 338 338 341 343 346 349 350 351 351 351 350 348 347 349 350 350 351 351 350 350 350 350 349 348 349 350 351 351 350 349 349 349 350 350 348 347 346 346 344 342 345 346 345 343 344 346 342 337 338 341 345 346 345 346 346 346 344 344 345 345 346 346 346 345 343
350 350 351 351 351 350 348 346 343 341 340 340 340 340 339 338 339 339 337 337 338 338 343 348 349 350 350 351 351 350 350 349 349 348 349 350 350 350 350 350 349 350 349 350 349 349 351 351 350 349 349 349 349 349 348 347 346 345 344 342 342 344 344 343 343 344 342 338 337 338 342 345 346 345 346 346 345 345 345 345 347 347 346 345 344
350 350 350 351 350 350 348 346 344 341 339 339 340 339 338 338 338 337 336 335 337 341 347 350 350 351 351 351 351 350 350 351 351 350 349 350 350 350 350 350 350 349 349 350 350 350 350 351 350 350 349 349 349 349 348 347 346 345 344 342 342 343 344 343 343 341 339 338 337 337 339 342 345 346 346 346 345 346 346 346 346 346 346 345 345
350 350 350 351 350 349 348 346 345 342 339 339 339 339 337 336 336 336 335 337 341 346 349 351 351 351 351 351 352 351 351 352 351 350 350 350 350 351 350 351 350 350 349 349 350 351 351 350 350 350 351 350 350 349 348 347 345 345 343 342 341 342 344 344 341 339 337 336 337 337 339 340 343 345 345 346 345 346 347 347 347 346 346 346 345
349 350 350 351 350 349 348 346 345 343 340 338 338 338 337 335 336 336 336 341 347 349 350 350 351 351 352 351 352 352 353 352 351 350 350 350 350 351 351 351 351 351 350 350 350 351 351 350 350 351 352 351 350 350 349 347 346 345 344 342 341 341 343 344 341 337 336 336 336 337 339 340 341 344 344 345 345 345 346 347 347 347 346 345 346
349 349 350 350 350 349 348 346 345 345 342 339 338 337 336 336 336 336 339 344 349 349 350 351 350 351 352 351 352 353 354 353 352 350 350 351 351 352 352 352 351 351 352 351 351 351 351 351 350 351 352 351 350 351 349 347 346 345 342 341 341 341 342 343 341 338 336 336 335 336 338 339 340 343 343 343 344 345 346 346 346 347 346 345 346
349 350 350 350 351 350 349 347 345 345 344 343 342 339 336 336 336 338 344 347 348 349 350 351 351 351 352 351 351 353 353 353 352 351 351 353 352 353 352 352 352 352 352 352 352 352 351 351 351 351 352 352 351 351 350 348 346 346 343 340 340 340 341 342 342 339 338 336 336 336 338 339 340 341 342 342 343 344 345 346 346 346 346 346 346
350 349 350 351 351 351 350 347 347 347 347 348 347 342 339 337 335 340 347 348 348 349 349 350 350 352 352 351 351 352 353 353 352 352 353 353 353 353 353 353 352 352 353 354 354 354 352 351 352 351 351 352 352 351 350 348 347 345 342 339 339 339 340 342 342 340 339 338 337 339 339 339 339 339 340 341 342 343 344 345 346 346 346 346 346
350 349 350 351 351 351 351 349 348 349 350 350 350 347 346 344 339 340 347 349 348 349 349 350 352 352 352 351 351 352 352 353 353 353 353 354 353 353 354 354 352 352 354 354 354 355 354 352 352 352 352 353 352 350 349 347 346 344 341 339 338 338 339 342 342 341 340 340 340 340 341 341 340 339 339 339 340 341 342 343 344 344 345 346 346
350 350 350 351 351 352 351 350 350 350 350 351 351 350 350 349 344 342 347 349 348 349 349 350 351 352 352 352 352 352 352 352 352 353 353 354 354 354 355 354 353 354 354 355 355 355 354 352 353 353 353 352 352 351 349 348 347 344 340 339 339 339 340 342 343 342 340 340 341 341 341 342 341 340 340 340 339 338 340 341 342 343 344 345 345
350 350 351 350 351 351 351 352 351 350 351 350 351 350 350 350 347 345 346 349 348 349 350 350 350 352 352 352 352 352 352 351 352 353 353 353 354 354 354 353 353 354 355 354 354 354 354 353 353 353 353 352 352 352 351 348 346 343 341 340 341 341 342 344 343 342 341 341 342 342 342 342 342 341 341 341 340 339 340 340 340 341 341 342 342
350 350 351 350 350 351 351 351 351 351 351 350 350 350 350 350 348 346 345 348 349 349 350 350 350 352 352 352 352 352 352 352 352 352 353 353 354 354 354 354 353 354 355 355 355 354 354 353 354 354 353 352 353 354 352 348 345 343 341 340 340 343 344 345 344 342 342 342 342 342 343 342 341 340 341 341 340 341 342 341 341 339 339 339 339
351 351 351 351 350 351 351 352 351 351 351 350 350 350 350 350 349 346 345 348 349 349 350 351 350 351 351 352 352 352 352 352 351 350 352 352 352 354 354 354 354 354 355 355 355 355 355 355 354 354 354 352 353 354 353 349 346 343 342 341 341 343 344 343 344 343 342 343 343 342 342 342 341 339 339 339 339 340 341 340 339 339 339 337 338
352 352 351 351 351 351 351 351 352 351 351 350 350 350 350 349 350 348 347 350 351 350 351 352 351 351 350 352 353 352 352 352 351 349 349 350 351 352 354 354 354 354 355 355 354 354 354 354 353 355 354 352 353 354 352 349 346 344 344 343 339 340 345 342 341 343 343 343 343 343 343 341 340 340 338 337 337 337 338 337 336 338 338 337 338
353 352 352 352 351 351 350 351 351 351 351 350 350 350 350 350 350 349 349 351 352 352 353 353 352 351 350 351 351 353 352 351 351 350 348 346 347 351 353 354 354 353 354 354 353 352 354 355 354 355 355 353 352 351 350 349 348 346 344 344 339 341 351 344 337 339 341 343 344 342 342 341 340 341 338 337 336 336 336 335 335 336 338 338 338
353 352 352 353 352 352 351 351 351 351 351 350 350 350 351 351 350 350 351 352 353 353 353 353 353 352 351 351 351 352 352 352 352 351 349 345 342 348 352 353 353 353 353 354 353 353 354 355 355 355 355 354 353 351 350 349 349 348 345 344 341 342 348 341 337 341 339 339 342 343 343 342 341 341 340 338 337 336 336 336 335 335 338 339 339
352 353 353 353 352 352 352 351 351 351 351 351 350 350 351 351 351 350 351 352 352 352 353 354 353 352 351 351 351 352 352 352 352 351 350 347 342 345 351 353 353 353 353 354 354 354 354 355 356 355 355 355 355 352 351 351 350 349 347 345 342 343 342 337 338 344 343 340 339 340 343 343 342 342 341 339 337 337 337 336 335 334 336 338 338
352 352 352 353 353 353 352 352 352 352 351 351 351 350 351 351 351 351 350 351 352 352 352 353 353 353 352 352 351 351 352 351 352 351 351 349 345 343 347 351 353 353 354 355 354 354 354 355 356 356 356 357 356 354 352 352 350 348 347 346 344 343 342 338 336 339 347 349 342 338 341 342 343 343 341 340 338 338 337 336 334 333 335 336 336
351 352 353 352 353 353 353 352 353 352 352 352 351 350 351 352 351 351 351 351 351 352 352 352 353 352 352 353 352 351 351 351 351 351 350 350 349 345 343 346 350 352 354 355 354 354 353 355 357 357 357 358 357 355 353 352 351 348 346 346 344 341 342 341 337 334 342 351 347 339 337 339 341 342 341 340 339 338 338 338 336 335 336 336 335
351 351 353 353 353 353 352 352 353 353 353 352 351 351 351 352 352 351 351 351 352 352 352 353 352 352 352 352 352 352 351 350 350 351 351 350 350 349 346 343 344 347 351 353 352 352 353 354 356 356 358 358 357 356 354 353 351 348 347 346 344 341 341 341 340 337 336 340 344 340 335 336 338 339 339 339 339 338 338 339 337 336 336 336 336
351 351 352 352 353 352 352 352 353 353 354 353 353 352 351 352 352 352 351 352 352 352 352 352 351 351 352 352 352 351 350 351 351 351 351 351 350 351 349 347 343 344 347 349 349 350 353 354 355 356 358 358 358 356 354 353 352 350 348 346 344 341 341 341 340 339 337 336 341 340 335 335 337 336 338 338 338 338 339 339 338 337 337 337 336
Wind_Speed
19 21 22 23 21 21 22 22 21 21 21 21 22 22 22 21 21 21 21 21 21 21 21 20 19 19 18 18 17 17 16 15 15 15 15 14 13 13 13 13 13 12 12 12 12 12 11 12 12 11 11 11 11 10 10 11 12 13 13 13 13 13 13 13 12 13 13 12 12 12 12 11 10 10 10 10 11 12 13 13 15 16 16 16 16
23 23 22 22 23 23 23 21 21 21 21 21 21 21 21 21 21 21 20 20 20 20 20 19 19 18 18 17 17 17 16 15 15 15 14 14 14 13 13 13 12 12 12 12 11 11 11 11 12 11 11 11 11 11 11 12 14 14 15 15 14 14 14 13 13 13 12 12 12 11 11 10 10 10 10 11 11 12 13 14 16 17 16 15 14
25 24 23 23 24 24 22 21 21 21 21 21 21 20 20 20 20 20 20 20 20 19 19 19 18 18 17 17 17 17 16 15 15 15 14 14 14 13 13 12 12 12 12 11 11 11 10 10 11 11 11 11 11 11 12 13 15 16 16 15 14 14 14 14 13 13 12 12 11 11 11 10 10 11 12 12 12 13 14 15 16 17 16 15 14
26 25 24 23 25 24 22 22 20 21 21 20 20 20 20 19 19 19 19 19 19 19 18 18 17 17 17 17 16 16 15 15 15 14 14 13 13 13 13 12 11 11 11 11 11 11 10 10 10 11 11 11 11 12 13 14 15 16 16 15 15 14 13 13 13 13 12 11 11 11 11 11 11 12 13 13 13 15 16 15 15 16 16 16 15
28 26 24 24 25 25 23 22 20 20 20 20 20 19 19 19 19 19 19 19 18 18 17 17 17 17 17 16 15 15 15 15 14 13 13 13 12 12 12 11 11 11 11 10 11 10 10 10 10 11 11 11 12 13 14 15 15 15 15 15 15 14 14 13 12 12 11 11 12 12 12 11 12 12 14 14 14 15 16 15 15 16 16 17 17
29 25 24 24 26 26 23 22 20 20 20 19 19 19 19 18 19 19 18 18 18 18 17 16 17 17 16 15 14 14 14 14 14 13 12 12 11 11 11 11 11 10 11 10 10 10 9 10 10 10 11 12 13 14 14 14 15 14 14 14 14 14 13 13 12 11 12 12 13 14 13 12 12 14 14 14 14 15 16 15 15 16 16 16 18
28 25 25 26 27 26 24 22 21 20 20 19 19 19 19 19 18 18 18 18 17 18 17 16 16 15 14 14 13 13 13 13 13 13 12 12 11 10 10 10 10 10 10 10 10 10 10 10 10 10 11 12 13 13 13 13 13 13 13 13 13 13 13 12 12 12 12 13 14 14 13 12 14 15 14 14 15 15 16 15 15 16 15 15 16
28 26 27 28 27 26 24 22 21 21 20 19 19 18 18 18 18 17 18 17 17 17 17 16 15 14 14 13 13 13 13 12 12 12 12 11 10 10 10 10 10 11 11 10 10 10 10 10 10 10 11 12 13 13 12 13 13 13 13 13 13 12 12 12 12 12 12 13 14 14 14 12 14 16 14 14 15 15 15 16 16 15 14 15 14
28 28 29 29 27 25 23 23 22 21 20 19 19 18 18 18 17 17 17 17 16 16 16 15 14 14 13 13 12 12 13 13 12 12 11 11 10 10 10 10 10 10 11 11 10 9 10 11 10 10 10 10 11 12 12 12 12 13 13 13 13 12 12 12 12 12 12 13 13 14 14 12 14 16 15 14 16 16 15 16 16 15 14 14 13
29 29 30 29 28 26 24 24 22 21 20 19 19 19 18 18 17 17 17 16 16 15 15 14 14 13 13 12 12 11 12 12 12 12 11 9 10 10 10 11 10 10 11 11 11 10 10 11 11 10 10 10 10 11 12 12 12 12 13 13 12 11 11 12 12 12 12 13 13 13 13 13 15 16 15 14 16 17 16 16 16 15 14 12 12
29 30 30 28 28 26 25 24 22 21 20 19 19 19 18 18 17 17 16 15 15 15 14 14 13 12 12 12 11 11 11 11 11 11 10 9 10 10 10 11 10 10 10 11 11 11 11 12 11 11 10 11 11 11 11 11 12 12 12 13 12 11 11 12 12 12 12 12 12 13 13 14 15 16 15 14 15 16 15 15 15 16 14 11 12
30 31 29 28 28 26 25 23 22 21 20 20 19 19 18 17 17 16 16 15 15 14 14 14 13 12 12 11 11 11 11 11 11 11 10 9 10 10 10 11 11 11 10 10 11 10 11 12 12 11 11 11 11 10 11 11 11 12 12 12 12 11 11 11 11 11 11 11 12 12 12 13 13 15 15 15 16 16 15 15 15 16 15 12 12
30 30 29 29 28 26 25 23 23 22 20 20 19 19 18 17 16 16 16 15 15 14 14 13 13 12 11 11 11 11 11 10 10 10 11 10 10 10 10 11 11 12 11 11 11 11 11 12 12 11 11 11 10 10 11 11 11 11 12 12 11 11 10 10 10 10 11 11 11 12 12 12 12 13 15 15 15 15 15 15 15 15 14 14 13
30 30 29 29 27 25 24 24 23 22 21 20 20 19 17 17 16 16 15 15 15 14 14 13 13 12 12 12 11 11 11 11 11 10 10 9 9 9 9 10 11 12 12 12 12 11 11 12 12 11 11 11 10 10 10 10 11 11 11 11 10 10 10 11 10 10 11 11 11 12 13 13 12 13 14 13 13 13 13 13 14 13 13 13 14
31 30 30 29 27 25 24 23 22 22 21 20 20 18 17 17 15 15 15 15 15 14 14 13 13 13 12 12 12 12 12 12 11 10 10 9 8 8 8 9 10 11 12 12 12 12 12 12 12 11 11 11 10 10 10 10 11 11 10 10 9 8 9 10 10 10 11 11 11 12 12 13 12 12 12 12 12 12 12 12 12 12 11 11 13
30 29 30 29 26 25 24 23 22 21 21 21 19 18 17 16 15 15 15 15 15 15 14 14 13 13 13 13 12 12 12 12 11 11 10 9 9 8 8 8 9 10 10 11 12 12 12 11 11 11 11 11 10 9 9 10 11 11 9 9 8 7 7 8 9 10 11 11 12 12 12 12 12 11 10 11 11 11 11 11 11 11 11 10 11
29 28 30 28 26 26 25 23 22 21 21 20 19 18 17 16 15 15 15 15 15 15 14 14 13 14 13 13 13 12 12 12 12 11 10 10 9 9 9 9 9 10 10 10 11 11 11 11 10 10 11 10 10 9 9 10 10 10 9 8 7 6 6 7 8 10 10 11 12 12 12 11 11 10 10 10 10 10 10 10 11 11 10 9 10
28 28 29 28 28 27 25 24 22 21 21 20 19 18 17 16 16 15 16 15 15 15 15 15 14 14 14 14 14 13 12 12 12 11 11 10 10 10 10 9 10 10 10 10 10 10 11 11 10 10 10 10 9 9 9 9 9 9 9 8 7 6 6 7 8 9 10 10 11 12 11 10 10 10 9 10 10 9 10 9 9 10 10 9 9
27 27 28 28 28 27 26 24 23 22 22 21 19 18 17 16 16 16 16 15 16 15 15 15 14 14 14 14 13 13 13 12 12 12 11 11 11 11 10 10 10 10 10 10 10 10 10 10 10 10 10 10 9 9 9 9 8 8 8 8 7 6 6 7 8 9 9 10 10 11 11 10 9 9 9 9 9 9 9 9 8 8 9 9 8
26 26 27 27 28 27 26 25 24 23 23 22 20 19 17 16 16 16 15 15 15 15 15 15 14 14 14 14 13 13 13 12 12 12 12 12 12 11 10 10 10 10 10 10 10 10 11 11 11 10 10 10 9 9 8 8 8 8 8 8 8 6 6 7 8 9 9 9 10 10 10 9 9 9 8 9 9 9 9 9 8 8 7 8 8
26 26 27 27 27 28 27 26 25 24 23 22 21 20 18 16 16 16 15 15 15 15 15 15 14 14 14 13 13 13 13 12 12 12 12 12 11 10 9 9 9 9 9 10 10 10 11 11 11 11 10 11 11 10 8 7 8 8 7 8 8 6 6 6 7 8 9 10 10 10 10 9 9 9 8 8 8 8 8 8 8 8 7 7 8
26 26 27 28 27 28 28 27 25 24 24 23 22 20 18 17 17 16 16 16 15 15 15 15 14 14 14 13 14 14 13 13 12 12 12 12 10 9 9 9 8 8 9 9 8 9 10 10 10 10 11 11 12 11 9 8 8 7 7 7 7 6 5 6 7 7 8 10 10 10 10 9 9 8 8 8 7 8 7 7 7 7 7 7 7
28 28 28 28 28 29 28 28 27 25 24 23 23 21 19 18 18 17 17 16 15 15 15 15 15 15 14 14 13 13 13 12 11 10 11 11 9 8 8 8 8 9 9 9 8 8 8 8 9 10 10 10 11 11 10 9 8 7 7 7 7 6 5 5 5 6 7 9 10 10 10 9 9 8 8 8 7 7 7 7 7 7 7 7 7
28 29 29 29 29 30 29 29 27 26 25 24 23 22 21 20 19 18 18 17 16 16 16 16 15 15 14 13 12 11 11 11 10 8 9 10 9 7 7 7 8 9 9 9 8 7 7 8 9 10 10 10 10 10 10 9 8 8 8 7 6 5 4 4 4 5 7 9 10 10 10 9 9 8 7 7 7 7 7 7 7 6 7 7 6
28 28 29 29 30 31 30 29 28 27 26 25 25 23 22 21 20 19 19 19 17 17 17 16 16 14 14 13 11 11 10 9 9 7 7 9 10 9 9 8 8 9 9 9 9 8 8 9 9 10 10 10 9 8 8 7 7 8 8 8 7 6 5 4 4 4 7 9 10 10 10 10 9 8 7 7 7 7 6 6 6 6 6 7 7
27 28 29 30 31 31 31 30 30 28 27 26 26 24 23 22 22 20 20 19 18 18 17 17 16 14 13 12 11 10 9 9 9 7 6 8 10 10 9 8 8 7 7 7 8 9 9 9 9 9 9 9 8 8 7 6 6 6 7 8 8 7 6 6 5 4 6 9 10 10 10 10 9 8 8 7 7 7 6 6 6 5 6 6 7
28 28 29 30 31 32 32 31 31 30 28 27 27 26 24 23 23 21 20 19 18 18 17 17 16 14 12 11 11 10 10 10 9 8 7 7 9 10 9 8 6 6 6 6 7 8 10 9 9 8 7 7 7 7 7 7 6 6 6 7 8 8 8 7 6 6 7 9 10 10 10 9 9 8 8 7 7 7 6 6 5 5 5 5 6
28 28 29 29 31 32 32 32 32 31 30 28 28 27 25 24 23 22 21 19 18 18 17 17 16 14 12 11 10 10 10 10 10 9 7 7 8 8 8 7 6 6 5 6 6 8 9 8 8 7 5 5 5 5 5 5 6 7 8 8 8 9 8 8 7 7 7 9 10 10 10 10 9 9 8 7 7 7 6 6 5 5 4 5 5
28 29 29 30 32 32 32 33 33 32 31 30 29 28 26 25 24 23 21 20 18 18 17 17 16 15 13 12 11 10 11 10 10 9 8 7 7 7 7 7 7 6 6 6 7 7 7 6 6 5 4 3 3 2 2 2 2 4 7 10 10 10 9 9 8 8 9 10 10 10 10 10 10 9 8 8 7 7 7 7 6 5 5 4 5
30 30 30 31 32 32 33 34 34 33 32 30 29 28 26 26 25 23 22 21 19 17 17 17 16 15 14 13 12 11 11 11 10 9 9 8 7 7 7 8 7 7 7 7 7 6 6 5 5 5 4 3 2 3 3 2 1 2 4 8 12 12 10 8 8 9 9 10 11 11 10 10 10 9 8 8 8 7 7 7 7 6 6 5 5
30 30 31 32 32 33 33 34 34 33 32 31 30 29 27 27 25 24 23 21 19 17 17 17 16 16 15 13 12 11 11 11 11 10 9 8 8 8 8 8 8 7 7 7 7 7 6 5 4 4 4 4 3 4 4 3 2 3 4 4 9 13 11 9 9 9 10 10 11 11 11 10 10 10 9 9 8 8 7 7 7 7 7 6 6
31 32 32 32 33 33 33 34 34 33 33 32 31 30 28 28 26 25 23 21 19 18 18 17 16 15 14 13 12 12 11 11 11 11 10 10 9 9 8 8 8 8 7 8 7 7 7 5 4 3 3 3 3 4 4 4 2 2 3 2 6 12 12 10 10 10 10 11 11 12 12 12 11 10 10 10 9 9 8 8 7 7 7 7 7
32 33 32 33 34 34 34 34 33 34 34 33 32 31 29 28 27 25 23 21 19 18 18 17 16 15 14 14 13 12 12 11 12 12 12 11 10 10 9 9 8 8 8 8 8 8 7 6 4 4 4 4 3 4 5 4 2 2 2 1 4 11 13 12 11 10 11 11 11 11 12 13 12 11 11 10 10 9 9 8 8 7 7 7 7
31 31 33 34 34 33 33 33 34 34 34 34 33 32 30 29 28 26 23 21 20 20 19 17 16 15 14 14 13 13 12 11 12 13 13 12 11 11 10 9 9 9 9 9 9 8 7 6 5 5 5 4 3 5 6 4 2 1 2 3 2 9 14 13 11 11 11 10 10 10 12 12 13 13 12 11 10 10 9 9 8 8 7 7 7
30 32 34 35 34 34 33 33 34 35 35 34 34 33 32 30 29 26 24 22 21 20 19 18 17 15 15 15 14 14 12 11 12 13 14 13 13 13 11 10 10 10 9 9 9 8 7 6 5 5 5 4 4 4 5 5 2 0 1 3 3 7 14 14 11 11 11 10 9 9 11 12 12 12 12 12 11 10 10 9 9 8 8 8 8
32 33 34 34 34 34 34 33 34 35 35 35 34 34 32 31 29 26 25 24 22 21 20 19 17 16 16 16 16 15 13 12 12 13 14 14 14 13 12 11 11 10 9 9 9 8 7 6 6 6 6 5 5 4 5 5 3 1 0 4 5 7 13 14 13 12 11 10 9 9 10 10 11 11 11 11 11 11 10 10 9 9 9 8 8
34 33 34 35 35 35 35 34 35 36 36 35 34 33 33 32 29 26 25 24 23 22 20 19 18 18 18 18 17 16 15 13 13 14 14 14 15 13 12 11 11 11 10 9 9 8 7 7 7 7 7 5 4 4 5 4 3 2 0 3 6 8 12 15 14 13 11 10 9 9 9 9 9 10 10 10 10 10 10 10 9 9 9 8 8
34 34 35 36 36 35 35 35 35 36 36 35 34 33 33 32 30 28 25 25 24 22 20 20 19 19 19 19 18 17 17 15 14 14 15 14 14 13 12 12 12 11 11 10 9 8 8 8 8 8 7 5 3 3 4 5 4 3 1 1 4 8 11 14 15 13 11 10 9 9 8 8 8 8 9 8 9 9 10 10 10 9 9 8 8
35 35 36 36 35 35 35 35 34 35 35 34 33 32 31 30 30 29 27 26 25 23 22 22 20 20 21 20 19 19 19 18 16 16 16 15 15 14 13 13 13 12 12 11 10 9 9 9 8 8 7 4 3 3 3 5 3 3 2 1 4 8 11 14 15 14 11 10 10 9 8 8 7 7 7 7 7 7 8 9 9 9 9 9 8
35 36 36 35 35 35 34 34 34 35 35 33 32 31 30 29 30 31 30 28 27 26 25 24 22 21 22 21 20 20 20 20 19 18 17 17 16 15 14 14 13 13 13 12 11 10 9 9 9 8 7 5 4 4 3 3 3 4 4 3 5 8 11 14 16 13 11 10 10 10 9 8 7 7 6 5 5 6 6 7 7 8 8 8 8
35 36 37 37 37 36 35 36 35 35 35 34 33 33 32 31 31 32 33 31 30 28 27 26 24 23 22 21 21 21 22 21 21 21 20 19 17 16 16 15 14 14 13 12 11 10 9 9 9 8 7 6 5 5 4 3 4 6 5 4 5 9 12 14 15 14 12 11 11 11 10 9 7 6 5 5 5 5 5 5 5 6 6 7 7
34 37 38 38 38 37 37 37 36 36 37 37 36 35 35 35 33 34 34 32 31 31 29 27 26 24 22 21 22 22 22 21 21 23 23 21 19 18 17 16 15 15 14 12 11 11 10 9 10 9 8 7 7 6 5 4 3 5 7 5 2 5 10 14 15 14 13 12 12 12 11 10 7 5 5 5 5 5 5 4 4 4 5 6 6
36 37 38 38 38 37 37 36 36 37 39 39 38 37 37 36 34 34 34 32 31 32 29 26 26 25 22 22 23 23 23 21 20 22 25 24 22 20 18 17 16 16 15 13 12 12 11 10 11 11 9 8 8 7 7 5 3 4 6 5 1 1 4 10 15 16 15 14 14 13 12 11 8 6 6 6 5 5 5 4 4 4 4 5 5
35 36 37 38 38 39 38 38 38 38 39 39 39 38 36 34 33 31 31 30 29 30 28 25 26 26 24 23 25 25 24 21 19 19 23 25 25 22 20 18 16 16 15 14 13 13 12 11 12 12 10 10 9 8 8 7 5 3 4 3 1 2 0 6 11 15 16 16 15 14 14 13 11 9 7 6 6 5 5 5 4 4 5 4 4
35 37 39 39 39 40 41 40 39 39 39 40 40 37 34 32 30 27 26 25 24 25 26 26 27 28 27 27 26 27 26 23 20 19 20 23 25 25 21 19 17 16 15 14 14 13 12 12 12 12 11 10 10 9 8 9 7 5 4 2 2 1 2 3 5 8 13 17 18 18 16 14 13 12 10 8 7 6 6 6 5 5 5 5 4
36 38 41 42 40 41 41 40 39 39 40 40 40 37 34 32 31 27 25 24 23 25 29 31 30 30 30 29 27 26 27 25 22 21 19 20 24 26 23 20 19 17 16 15 13 13 13 12 12 12 11 10 10 10 10 10 9 7 7 6 3 2 2 4 3 1 6 12 17 20 19 17 15 15 13 11 9 9 8 7 7 7 6 5 5
38 39 40 41 41 40 40 41 40 39 40 40 40 39 35 34 34 33 32 31 29 30 33 34 32 31 30 29 27 26 28 27 25 23 21 19 21 25 25 22 20 19 17 16 14 14 13 12 12 12 12 10 10 11 11 11 10 10 10 10 9 7 4 4 4 2 2 5 11 17 20 20 18 18 16 14 12 11 10 9 8 8 7 5 5
38 39 39 40 41 40 41 41 40 39 40 40 41 40 38 36 36 36 34 34 33 33 33 33 32 30 29 28 26 26 27 27 26 24 22 20 20 23 25 24 22 20 18 17 15 14 13 13 13 13 13 12 11 12 12 11 11 12 11 11 10 9 7 7 8 7 4 1 5 9 15 19 20 20 19 17 15 13 12 11 10 9 7 6 6
38 39 40 40 41 41 41 41 40 40 40 40 41 42 41 38 37 36 34 34 34 31 30 31 31 30 28 27 26 26 27 27 27 26 24 22 20 20 23 24 24 21 19 18 16 15 14 13 14 14 15 14 13 12 13 13 13 13 12 11 10 8 7 7 9 9 5 3 3 4 9 13 16 21 22 20 18 17 16 14 12 11 8 7 8
38 40 40 39 40 40 40 40 40 40 40 41 42 43 42 39 37 36 35 33 32 29 28 29 30 30 29 28 26 26 26 27 27 26 25 24 21 19 21 23 24 23 22 20 18 16 15 14 14 15 15 15 14 14 14 13 13 14 14 14 12 9 7 5 6 8 5 3 3 4 9 12 11 18 23 22 21 19 19 17 15 13 11 9 9
37 38 38 38 39 39 39 41 42 41 41 42 42 43 42 40 38 37 36 34 32 30 28 29 29 30 30 30 28 26 26 27 27 26 26 25 23 20 20 21 22 23 23 22 20 18 16 15 14 15 15 15 15 15 15 14 13 14 14 15 15 12 10 8 7 9 7 5 4 4 10 14 12 15 19 21 22 21 20 20 18 16 14 12 11
Wind_Direction
153 146 140 138 137 134 133 132 129 127 125 123 122 122 122 122 124 125 126 127 129 130 131 132 133 134 135 136 135 136 137 137 137 137 137 138 138 137 135 132 126 121 116 109 105 104 105 106 105 107 110 114 117 120 126 129 128 126 124 119 116 111 107 107 107 106 106 108 109 111 111 111 111 111 112 113 109 107 109 110 113 112 107 105 105
153 147 143 140 137 135 135 133 131 129 127 125 123 122 122 123 124 126 128 129 130 131 132 133 133 135 135 135 135 135 136 137 137 138 139 140 140 138 135 132 126 121 115 108 105 104 106 107 106 104 107 112 115 119 122 124 124 124 121 115 111 109 107 107 104 102 104 105 107 110 111 114 117 115 114 113 112 110 113 116 115 112 108 106 104
149 148 145 142 137 137 138 134 132 131 128 126 125 124 123 123 125 126 128 129 129 129 130 130 132 133 134 135 136 137 137 139 139 139 138 139 139 138 135 132 127 120 114 109 107 106 107 107 106 104 104 109 113 118 120 121 123 121 116 111 108 107 107 107 105 104 103 105 108 109 112 114 116 119 119 118 118 117 115 115 114 113 111 107 102
151 150 147 144 140 141 141 135 134 133 130 128 127 126 126 126 127 128 128 128 128 128 129 130 132 134 136 137 137 138 139 139 139 137 137 139 138 136 134 129 125 121 116 111 110 109 107 107 107 106 104 109 115 118 119 119 119 117 113 110 108 107 106 106 106 105 103 105 108 108 111 115 118 121 119 116 117 117 116 116 117 115 112 108 103
155 153 150 147 143 145 142 137 137 135 132 130 129 128 129 130 130 130 129 128 128 128 130 131 133 134 134 135 135 138 139 138 135 134 136 137 135 135 132 128 126 123 119 117 116 113 111 112 110 108 106 111 117 118 119 121 118 115 112 111 110 108 106 105 106 104 104 107 108 109 111 116 119 116 114 116 117 117 116 118 120 116 112 111 106
156 153 151 148 145 146 145 141 140 138 135 133 131 132 132 132 132 131 129 128 129 130 130 131 132 132 131 132 134 136 138 135 134 135 135 135 133 134 132 130 125 119 119 121 121 117 115 115 114 111 108 112 118 119 120 120 116 114 112 112 111 108 106 105 105 105 109 110 107 107 109 115 116 109 110 119 122 120 118 119 118 114 112 110 107
154 152 150 147 144 146 148 145 142 140 137 135 134 134 134 133 132 130 129 129 129 131 131 131 131 131 132 134 134 135 136 133 134 135 134 133 131 133 131 126 121 121 125 127 126 123 121 117 115 112 111 114 117 119 118 114 112 112 111 110 110 108 106 105 105 108 111 108 104 103 105 111 113 108 110 120 125 123 120 119 114 110 109 105 104
155 153 149 146 144 146 150 147 145 142 139 138 137 137 136 134 132 131 130 130 129 130 131 131 133 134 135 133 134 135 134 132 132 133 134 133 131 131 127 122 124 132 134 132 130 128 127 120 116 116 117 117 119 121 116 112 113 114 112 109 109 108 107 107 108 109 110 108 105 104 103 105 110 112 115 120 120 117 117 116 112 109 108 104 103
156 153 149 148 146 148 151 149 146 143 141 141 141 140 137 135 134 133 131 131 130 130 130 131 134 136 135 134 134 132 130 131 131 132 131 132 132 128 124 123 132 140 138 136 134 133 131 123 120 121 122 120 121 120 114 114 115 115 114 112 112 111 111 112 111 110 109 109 107 106 106 103 106 114 120 121 118 116 118 117 114 112 108 105 106
156 154 152 149 147 150 152 150 148 145 144 144 144 142 139 137 136 135 133 132 131 131 131 131 134 134 134 133 132 130 129 129 131 132 130 133 133 129 127 127 135 141 139 138 135 137 134 126 123 126 127 124 123 118 112 114 116 118 117 116 115 113 114 117 116 114 111 110 109 108 108 104 104 112 119 122 120 120 123 120 115 112 107 108 114
156 156 153 151 150 151 153 151 149 146 147 147 145 143 140 139 138 137 135 134 133 132 133 132 132 133 133 132 131 130 128 127 127 129 129 133 131 128 128 126 131 133 134 134 132 137 135 128 126 127 131 130 126 119 113 114 118 120 119 118 118 115 118 120 118 118 116 113 112 114 113 109 109 114 119 122 123 124 123 118 115 114 114 120 123
158 157 154 152 151 151 153 152 150 149 149 149 147 144 142 141 140 139 137 136 136 135 134 132 131 131 131 131 131 128 127 128 127 127 128 129 128 128 128 128 131 129 127 128 131 135 132 130 129 129 135 135 131 123 116 117 120 122 121 119 117 117 121 120 116 119 120 117 116 118 118 114 115 119 122 125 128 129 125 122 121 120 124 131 129
157 157 154 152 151 152 154 152 152 151 152 151 149 146 143 144 142 141 141 140 138 136 135 133 131 131 131 132 130 128 127 129 130 132 132 130 131 132 133 134 135 130 129 130 132 132 129 131 132 131 135 136 135 127 120 118 119 122 123 121 119 120 124 119 115 118 121 123 122 119 116 116 120 121 123 123 126 129 126 127 126 126 133 136 131
157 157 155 154 152 153 155 154 154 153 154 153 150 147 146 146 144 144 143 141 138 136 135 134 133 133 134 133 130 129 128 128 128 130 130 131 131 131 133 132 129 129 130 130 130 129 129 133 133 132 136 136 131 123 118 116 116 120 125 126 123 124 128 123 118 120 123 126 126 122 116 116 118 118 120 121 122 122 121 124 125 130 137 136 131
157 157 156 155 152 155 157 156 156 155 156 154 151 148 149 148 146 145 142 139 138 136 136 135 135 135 135 132 129 129 126 124 122 121 122 124 126 125 123 119 117 120 123 124 124 127 130 132 132 132 136 134 126 121 118 119 121 121 126 130 128 130 134 128 123 122 123 123 124 122 118 117 118 117 120 123 124 123 124 125 126 130 132 131 130
158 157 156 154 153 157 157 157 158 158 157 155 152 151 151 150 148 145 141 139 137 137 137 138 138 136 135 130 129 128 125 126 126 125 124 124 125 121 118 114 112 110 112 115 115 118 124 128 130 132 136 135 130 126 122 124 127 124 127 132 132 138 140 132 127 125 124 122 120 120 116 115 117 119 123 125 127 127 127 128 129 131 130 130 129
157 157 156 154 157 159 159 160 161 160 159 155 154 154 152 151 149 146 142 140 139 140 140 141 141 140 139 136 135 135 134 135 135 133 131 128 124 119 117 115 113 109 108 108 106 110 117 122 126 132 137 139 136 131 127 129 129 127 130 133 133 137 141 138 133 129 129 125 123 120 116 115 116 117 121 124 127 127 126 126 128 128 129 128 127
157 159 157 157 160 161 161 163 163 163 161 158 157 156 155 154 152 148 144 143 143 143 142 142 142 142 140 138 139 139 138 137 134 133 130 128 126 122 119 116 114 112 112 112 111 113 115 118 124 131 136 140 143 138 134 134 133 131 132 133 133 136 143 146 142 139 136 132 129 124 118 118 117 115 116 118 122 124 123 124 126 126 127 127 130
159 160 159 159 162 163 164 165 166 166 164 161 160 159 158 156 154 151 148 146 146 146 145 144 143 142 139 137 137 137 137 135 133 132 130 130 128 125 121 119 117 115 114 114 118 120 119 121 126 130 134 142 150 147 140 139 140 138 136 137 139 140 146 152 150 147 144 141 137 130 125 124 121 117 116 116 117 118 118 119 122 124 125 128 133
161 163 162 163 165 165 167 169 170 170 168 165 163 162 161 160 156 154 151 150 150 149 148 146 145 143 140 139 139 140 140 138 136 134 133 132 129 126 124 123 122 121 117 114 116 121 123 125 128 133 137 143 152 153 149 145 142 139 138 142 146 147 147 153 155 153 151 150 146 137 132 130 125 122 119 117 116 116 116 116 117 119 124 132 137
163 166 165 166 167 168 170 172 173 174 172 169 167 166 164 163 160 158 156 155 154 152 152 151 150 148 145 144 146 147 146 145 142 138 138 135 130 128 127 123 123 123 119 116 114 116 122 126 130 135 139 143 150 157 158 153 147 142 141 147 152 150 146 153 158 158 158 157 156 147 138 135 131 127 124 120 118 118 117 116 115 115 119 129 139
165 168 169 169 170 171 174 175 176 177 175 172 171 170 168 168 165 164 162 161 159 157 158 157 157 155 152 150 152 152 149 149 145 143 144 138 134 135 133 126 123 122 119 118 116 117 119 124 131 136 142 147 153 160 162 160 154 146 147 158 162 158 153 156 158 161 164 164 163 155 144 141 137 134 130 125 123 122 121 120 118 117 117 122 135
168 170 171 172 173 175 177 178 179 180 178 176 175 174 172 172 171 169 168 167 164 164 165 164 164 161 155 150 151 151 148 148 142 144 150 143 140 142 140 136 130 126 124 124 125 125 123 127 133 138 145 153 156 159 164 165 160 154 162 171 171 171 165 160 162 165 169 170 169 163 152 148 144 140 137 133 130 128 127 126 122 120 117 118 126
170 171 172 174 176 178 179 181 183 182 181 179 178 178 177 176 176 174 174 173 171 173 173 171 169 163 157 152 151 148 144 141 136 141 155 151 149 151 151 147 139 135 136 135 134 135 135 135 136 142 150 157 159 158 163 169 170 169 172 177 183 189 181 171 172 173 175 175 173 169 160 155 151 147 145 140 137 134 130 126 121 120 119 119 122
171 172 174 176 179 181 182 183 185 185 184 183 181 182 181 180 180 179 179 178 179 181 179 176 172 166 160 157 155 152 148 144 138 142 158 160 159 160 160 155 146 143 142 139 137 139 142 141 137 141 148 157 166 168 169 174 180 179 175 183 198 204 205 203 198 192 184 178 175 173 165 160 158 156 154 148 145 141 135 129 122 120 120 122 123
172 174 176 179 181 183 184 184 187 188 187 186 184 185 184 183 183 182 183 183 184 185 182 180 176 171 166 163 163 161 161 157 147 146 158 166 165 160 158 156 151 145 140 136 136 138 141 142 140 140 143 153 165 174 181 188 190 188 184 191 203 211 219 224 225 215 192 179 176 174 169 165 164 165 163 158 156 152 144 136 131 127 123 124 124
174 177 178 181 183 184 186 187 188 190 191 190 188 188 187 187 185 183 186 186 185 185 184 182 180 177 174 171 170 168 168 166 159 157 160 167 167 163 159 158 157 153 146 140 140 143 144 145 145 145 144 151 162 172 185 196 205 209 207 205 209 215 224 230 236 227 199 184 178 175 174 171 170 172 171 166 164 163 157 148 144 137 129 128 128
175 178 180 182 185 186 187 188 190 192 193 194 192 191 190 189 187 186 188 188 187 187 185 183 181 179 179 178 177 175 174 174 171 169 171 172 173 173 168 165 162 163 160 153 154 154 152 153 155 155 153 159 169 176 184 201 217 224 228 229 223 222 226 231 236 229 207 191 182 177 179 178 176 179 177 173 170 171 169 164 160 153 146 142 139
177 180 182 184 187 187 188 190 193 194 196 196 196 194 192 191 191 190 188 189 191 189 187 187 183 180 182 184 184 183 183 184 182 180 183 183 184 187 182 177 171 171 173 167 164 163 162 164 168 169 171 177 182 202 213 218 235 241 241 237 234 234 233 230 232 228 212 198 189 181 184 185 182 184 182 178 178 180 179 176 172 169 168 164 157
180 181 183 186 188 188 190 192 194 196 198 198 198 196 194 193 193 191 189 190 192 192 193 192 187 183 184 188 191 191 190 190 191 190 190 190 193 196 191 188 185 183 183 175 173 175 175 175 180 181 182 189 215 249 261 265 286 319 282 239 230 234 236 231 230 229 217 204 196 185 187 192 187 187 188 183 184 186 187 187 184 182 182 183 181
180 182 185 188 189 190 192 193 195 198 199 200 199 198 196 195 194 192 191 191 191 193 197 197 192 188 187 190 195 196 197 197 199 201 197 194 195 196 194 192 191 190 187 183 183 185 187 186 190 195 198 203 217 236 244 249 277 336 330 255 225 227 231 228 225 230 222 209 203 193 188 193 194 192 191 190 189 190 193 193 191 190 190 191 195
182 184 186 188 189 191 194 194 196 198 200 202 201 199 198 197 196 195 193 192 192 195 199 199 195 192 191 193 198 198 201 204 208 212 208 201 198 198 197 194 192 191 191 189 189 189 193 196 198 205 216 219 216 216 224 232 264 332 340 278 222 222 225 223 220 225 223 212 206 203 194 191 195 197 195 195 194 194 197 197 197 197 198 198 199
184 185 186 188 190 192 194 195 197 199 201 202 202 201 200 199 199 197 194 192 194 197 198 197 195 194 194 195 198 201 205 212 218 221 218 210 205 202 198 195 192 192 193 194 195 193 199 208 218 224 220 224 222 218 225 225 245 325 355 343 224 221 222 219 217 219 220 214 209 209 202 194 195 198 200 201 201 199 200 202 201 203 206 205 204
184 185 187 189 190 192 194 196 197 200 202 203 204 203 201 201 201 200 196 194 195 197 198 198 198 198 199 200 200 204 211 218 221 220 219 215 209 205 199 195 192 191 191 194 196 198 209 221 229 228 222 227 231 226 223 211 220 325 351 342 254 221 220 217 215 218 218 214 211 212 208 202 199 200 201 202 204 205 206 207 206 208 212 214 214
184 185 188 189 190 192 194 195 198 201 202 204 205 204 203 202 203 202 199 196 196 197 200 203 204 204 205 205 202 206 211 216 220 216 215 214 209 205 201 196 193 191 190 193 198 204 215 226 231 230 228 231 229 222 210 196 195 194 298 306 276 217 215 213 212 217 218 215 213 213 210 208 207 206 205 204 205 207 211 212 212 216 216 219 225
187 187 189 189 190 192 194 195 198 201 202 204 206 206 206 205 205 204 201 199 199 201 204 207 210 211 210 207 202 205 210 216 220 213 211 210 206 203 201 198 196 195 194 194 198 205 211 216 224 230 233 233 230 218 201 188 167 140 245 283 260 215 204 205 209 215 217 215 214 212 208 208 211 214 213 211 210 210 213 214 215 222 223 223 230
189 189 189 189 190 192 194 196 198 201 203 205 207 208 209 209 208 206 203 202 203 206 209 213 217 216 211 205 203 205 209 216 215 207 207 205 203 203 201 201 202 200 200 200 201 204 209 213 217 225 230 237 242 230 208 184 147 132 62 279 243 210 195 196 205 214 216 216 214 208 203 204 209 216 218 217 216 216 216 217 218 223 228 230 234
190 191 191 191 191 192 194 196 198 201 203 204 207 209 211 211 211 209 207 207 208 211 214 218 221 218 211 205 207 208 210 216 210 203 206 207 207 208 207 207 207 206 205 206 209 208 213 219 222 223 227 238 250 238 205 172 138 114 91 274 212 195 188 193 204 214 216 215 211 203 198 199 204 212 219 219 219 223 223 222 223 223 228 233 237
190 192 192 192 192 193 195 196 198 200 202 205 207 209 211 213 214 213 213 214 214 216 219 221 221 219 213 210 212 212 214 216 210 205 207 208 211 212 213 212 212 212 210 211 215 216 217 220 226 229 228 236 237 220 180 160 130 106 128 143 180 186 187 194 206 216 217 214 206 200 196 195 198 206 217 223 222 226 228 228 229 226 225 228 236
190 191 192 192 193 194 194 196 198 200 201 203 205 206 209 212 214 214 216 218 218 219 220 220 221 220 216 216 217 215 215 216 213 209 206 208 212 213 215 215 215 215 215 217 217 217 218 216 225 231 229 233 225 206 185 165 123 107 132 160 181 189 193 200 208 215 217 215 207 203 200 196 197 202 211 222 224 227 228 230 231 227 227 230 237
189 190 191 193 194 194 194 196 197 198 199 201 202 204 205 207 209 212 215 217 217 217 218 218 221 220 218 220 217 213 212 215 216 213 208 209 211 213 215 216 218 219 221 226 224 221 220 215 222 228 229 236 229 212 209 194 131 114 129 162 192 198 201 206 213 218 219 217 212 209 208 203 198 203 210 214 219 225 225 224 225 224 229 235 239
188 190 191 193 194 195 195 196 196 197 199 201 202 203 205 205 205 208 212 216 215 214 215 217 219 219 219 219 214 211 212 215 219 217 213 212 211 211 214 216 220 221 225 231 230 226 221 215 220 225 227 237 238 225 216 207 161 138 136 131 167 204 210 214 217 222 225 223 219 214 215 212 201 202 214 213 212 214 214 214 217 220 225 232 237
190 191 192 192 193 195 197 197 197 197 199 201 202 204 207 207 207 207 209 212 213 212 214 217 217 219 220 218 214 214 215 217 219 219 218 216 214 212 211 214 219 221 223 227 228 227 224 221 223 227 230 235 240 231 218 211 190 153 133 120 127 167 225 232 226 227 229 230 229 221 219 218 207 206 218 219 213 207 205 204 211 220 221 226 231
190 191 192 192 193 195 197 197 198 199 199 201 203 205 207 208 209 209 209 210 212 212 214 218 219 220 221 220 218 218 219 219 217 219 220 218 217 215 213 213 216 220 223 224 226 227 227 227 226 228 230 234 236 226 214 210 203 178 136 106 116 124 231 244 228 230 231 233 237 231 224 220 213 211 218 219 212 209 210 207 210 218 219 223 228
191 191 192 193 194 196 197 198 198 199 200 201 203 204 205 206 206 206 207 208 210 210 211 214 218 221 222 221 222 222 222 221 218 219 220 219 217 216 217 215 214 219 223 225 228 228 228 230 229 227 227 232 232 222 213 211 213 217 192 132 96 145 233 216 205 228 231 231 237 236 230 225 219 217 220 221 215 213 218 216 215 220 221 219 225
193 193 194 195 195 196 197 197 198 199 200 201 202 202 202 202 200 198 199 201 205 207 208 212 216 219 220 222 223 224 224 223 221 220 220 219 217 216 217 216 216 220 224 226 230 231 229 231 230 226 225 228 228 223 219 217 220 228 225 217 216 244 230 173 150 210 233 235 240 238 235 231 226 224 224 225 222 220 223 225 227 230 231 228 229
194 194 195 196 196 196 196 197 198 199 200 200 200 201 201 201 201 200 201 201 203 208 212 214 216 219 219 221 224 223 225 226 225 222 221 219 219 218 218 218 219 223 226 228 231 231 231 232 232 230 228 228 227 227 224 223 226 228 232 238 246 261 250 190 177 166 180 242 243 238 237 236 232 230 229 229 229 227 227 231 234 233 233 233 233
193 193 194 195 196 196 196 197 198 199 200 200 200 201 201 202 203 204 204 205 206 210 213 214 217 219 218 220 224 224 225 227 228 226 222 221 221 221 221 221 222 225 227 229 233 235 234 234 234 234 234 233 231 231 229 229 231 230 231 238 247 257 255 233 217 196 153 169 244 237 236 237 236 234 233 234 234 233 232 234 234 229 227 228 221
192 193 194 195 196 196 196 197 198 199 200 200 200 201 203 204 204 205 206 209 210 212 213 213 215 217 218 220 223 225 225 226 227 227 225 223 224 224 225 224 225 226 228 231 236 238 237 236 235 235 235 235 233 233 234 235 236 233 233 237 240 241 250 252 231 208 171 153 219 236 222 227 237 236 233 235 238 237 235 236 238 232 228 229 221
193 194 194 195 195 195 195 196 198 199 199 200 201 202 204 204 205 206 207 209 210 211 212 213 213 215 217 219 222 225 225 224 224 226 226 225 225 227 228 227 227 228 230 233 237 239 239 237 238 238 237 236 234 233 235 239 239 236 236 238 233 225 229 243 219 203 186 163 197 228 210 204 222 233 232 234 238 239 238 237 239 235 230 231 227
193 194 194 194 194 194 194 195 198 199 199 200 201 202 203 204 206 207 209 210 208 207 208 210 211 213 215 218 221 223 224 225 224 224 226 225 225 228 231 230 229 229 231 234 237 238 239 238 240 242 241 239 237 235 236 239 239 238 240 238 234 232 229 228 217 203 196 187 183 213 216 210 219 233 234 236 238 241 242 239 237 235 233 233 232